Regional Weather Roundup
Issued by NWS Bismarck, ND

Home | Current Version | Previous Version | Text Only | Print | Product List | Glossary On
Versions: 1 2 3 4 5 6 7 8 9 10 11 12 13 14 15 16 17 18 19 20 21 22 23 24 25 26 27 28 29 30 31 32 33 34 35 36 37 38 39 40 41 42 43 44 45 46 47 48 49 50
056
ASUS43 KBIS 190410
RWRBIS

NWR BROADCAST TEXT
NATIONAL WEATHER SERVICE BISMARCK ND
1000 PM CST WED JAN 18 2017

NOTE: "FAIR" INDICATES FEW OR NO CLOUDS BELOW 12,000 FEET WITH NO
SIGNIFICANT WEATHER AND/OR OBSTRUCTIONS TO VISIBILITY.


CITY           SKY/WX    TMP DP  RH WIND       PRES   REMARKS
WILLISTON      FAIR      26  22  84 S5        29.52F
MINOT          FAIR      38  27  64 SW18      29.50F
MINOT AFB      NOT AVBL
BISMARCK       FAIR      22  17  81 E5        29.61F WCI  16
DICKINSON      FAIR      30  22  72 S6        29.53F
GARRISON         N/A     23  20  88 S5        29.55F WCI  17
HETTINGER ARPT FAIR      28  20  71 CALM      29.58F
JAMESTOWN      FAIR      27  21  78 S7        29.62F WCI  19
CARRINGTON     FAIR      36  23  60 W8        29.62S
HAZEN            N/A    N/A N/A N/A CALM      29.58S
MANDAN         FAIR      25  19  80 SE10      29.60F WCI  15
RUGBY            N/A     28  23  80 S10       29.53F WCI  19
STANLEY        FAIR      32  27  80 S9        29.54F
TIOGA          FAIR      32  28  86 SW12      29.54S
WATFORD CITY   FAIR      25  21  86 CALM      29.55F
$$

CITY           SKY/WX    TMP DP  RH WIND       PRES   REMARKS
GRAND FORKS    FAIR      27  20  75 S15       29.64F WCI  15
GRAND FORKS AF FAIR      27  22  82 S15       29.62F WCI  15
DEVILS LAKE    FAIR      33  24  69 S8        29.58F
FARGO          FAIR      31  25  78 S12       29.70F
CAVALIER         N/A     28  25  86 S15       29.57F WCI  17
GRAFTON        FAIR      25  23  93 S16       29.63S WCI  12
GWINNER        FAIR      27  23  86 S7        29.70F WCI  19
ROLLA            N/A    N/A N/A N/A MISG        N/A
$$

CITY           SKY/WX    TMP DP  RH WIND       PRES   REMARKS
ABERDEEN       FAIR      17  14  88 N3        29.69F FOG
MOBRIDGE       FAIR      22  16  78 SE7       29.61F WCI  13
BUFFALO          N/A     34  22  61 SW3       29.52F
RAPID CITY     FAIR      31  23  72 N13       29.57F
GLASGOW        FAIR      30  24  78 S10       29.50S
SIDNEY         FAIR      25  21  85 SW12      29.54F WCI  14
WOLF POINT     FAIR      21  16  81 CALM      29.52F
GLENDIVE       FAIR      26  21  81 S12       29.57R WCI  16
MILES CITY     FAIR      26  19  74 SE9       29.58S WCI  17
BAKER          FAIR      19  14  81 CALM      29.58F
$$

CITY           SKY/WX    TMP DP  RH WIND       PRES   REMARKS
BILLINGS       FAIR      37  22  54 W17       29.59F
GREAT FALLS    FAIR      39  26  59 SW15      29.50F
REGINA         PTCLDY    32  28  86 S9        29.41R
ESTEVAN        CLEAR     30  25  80 SW15      29.47F WCI  19
$$





USA.gov is the U.S. government's official web portal to all federal, state and local government web resources and services.